Northeast Philadelphia, PA

6:27 AM EST on December 16, 2019 (GMT -0500)
Northeast Philadelphia

Weather History for KPNE - November, 2019

Change the Weather History Date:

Thursday, November 21, 2019

  Actual Average Record
Temperature  
Mean Temperature 46 °F -  
Max Temperature 55 °F 51 °F 68 °F (1999)
Min Temperature 36 °F 34 °F 27 °F (2000)
Degree Days  
Heating Degree Days 20    
Moisture  
Dew Point 32 °F    
Average Humidity 54    
Maximum Humidity 79    
Minimum Humidity 40    
Precipitation  
Precipitation 0.00 in - - ()
Sea Level Pressure  
Sea Level Pressure 30.16 in    
Wind  
Wind Speed 6 mph ()    
Max Wind Speed 16 mph    
Max Gust Speed -    
Visibility 9.5 miles    
Events      
Averages and records for this station are not official NWS values.
T = Trace of Precipitation, MM = Missing Value Source: Averaged Metar Reports

Daily Weather History Graph

Daily Weather History Graph

Search for Another Location

Airport or City:

Astronomy

Nov. 21, 2019 Rise Set
Actual Time 6:51 AM EST 4:39 PM EST
Civil Twilight 6:22 AM EST 5:08 PM EST
Nautical Twilight 5:49 AM EST 5:42 PM EST
Astronomical Twilight 5:17 AM EST 6:14 PM EST
Moon 12:44 AM EST (11/21) 2:07 PM EST (11/21)
Length of Visible Light 10h 46m
Length of Day
9h 47m
Waning Crescent, 30% of the Moon is Illuminated
Nov 21
Waning Crescent
Nov 26
New
Dec 4
First Quarter
Dec 12
Full
Dec 18
Last Quarter

Hourly Weather History & Observations

Time (EST) Temp. Windchill Dew Point Humidity Pressure Visibility Wind Dir Wind Speed Gust Speed Precip Events Conditions
12:54 AM 46.9 °F - 34.0 °F 61% 30.15 in 10.0 mi NNW 16.1 mph - N/A   Overcast
2:54 AM 43.0 °F 38.8 °F 33.1 °F 68% 30.18 in 10.0 mi NNW 6.9 mph - N/A   Clear
3:54 AM 42.1 °F 39.2 °F 32.0 °F 67% 30.19 in 10.0 mi North 4.6 mph - N/A   Clear
4:54 AM 41.0 °F - 32.0 °F 70% 30.22 in 10.0 mi Calm Calm - N/A   Clear
5:54 AM 41.0 °F 37.1 °F 30.9 °F 67% 30.22 in 10.0 mi NW 5.8 mph - N/A   Clear
6:54 AM 36.0 °F 33.3 °F 30.0 °F 79% 30.23 in 6.0 mi WSW 3.5 mph - N/A   Haze
7:54 AM 39.9 °F 37.8 °F 32.0 °F 73% 30.24 in 7.0 mi West 3.5 mph - N/A   Clear
8:54 AM 48.0 °F - 33.1 °F 56% 30.24 in 10.0 mi NW 4.6 mph - N/A   Clear
9:54 AM 50.0 °F - 33.1 °F 52% 30.24 in 10.0 mi Variable 4.6 mph - N/A   Clear
10:54 AM 52.0 °F - 32.0 °F 47% 30.23 in 10.0 mi West 4.6 mph - N/A   Clear
11:54 AM 55.0 °F - 32.0 °F 42% 30.20 in 10.0 mi NNE 4.6 mph - N/A   Clear
12:54 PM 54.0 °F - 32.0 °F 43% 30.18 in 10.0 mi SW 5.8 mph - N/A   Clear
1:54 PM 55.0 °F - 32.0 °F 42% 30.16 in 9.0 mi SW 9.2 mph - N/A   Clear
2:54 PM 55.9 °F - 32.0 °F 40% 30.14 in 7.0 mi WSW 6.9 mph - N/A   Clear
3:54 PM 54.0 °F - 32.0 °F 43% 30.14 in 10.0 mi SW 6.9 mph - N/A   Clear
4:54 PM 53.1 °F - 32.0 °F 45% 30.13 in 10.0 mi SW 5.8 mph - N/A   Clear
6:54 PM 51.1 °F - 32.0 °F 48% 30.12 in 10.0 mi South 4.6 mph - N/A   Clear
7:54 PM 51.1 °F - 32.0 °F 48% 30.10 in 10.0 mi SSW 6.9 mph - N/A   Clear
8:54 PM 50.0 °F - 33.1 °F 52% 30.09 in 10.0 mi SSW 8.1 mph - N/A   Scattered Clouds
9:54 PM 50.0 °F - 33.1 °F 52% 30.04 in 10.0 mi South 5.8 mph - N/A   Mostly Cloudy
10:54 PM 50.0 °F - 33.1 °F 52% 30.03 in 10.0 mi SW 10.4 mph - N/A   Partly Cloudy
11:54 PM 50.0 °F - 33.1 °F 52% 30.00 in 10.0 mi SSW 11.5 mph - N/A   Scattered Clouds